Precipitable_Water
0.31 0.34 0.35 0.38 0.39 0.37 0.34 0.33 0.35 0.37 0.44 0.45 0.47 0.48 0.50 0.50 0.50 0.48 0.41 0.45 0.34 0.28 0.28 0.33 0.34 0.28 0.28 0.26 0.22 0.29 0.29 0.31 0.33 0.27 0.24 0.23 0.20 0.22 0.21 0.22 0.20 0.20 0.20 0.20 0.22 0.17 0.11 0.26 0.24 0.24 0.41 0.53 0.59 0.61
0.31 0.35 0.38 0.40 0.35 0.31 0.35 0.36 0.33 0.42 0.46 0.48 0.50 0.51 0.51 0.52 0.52 0.54 0.41 0.47 0.47 0.33 0.28 0.39 0.37 0.37 0.33 0.31 0.28 0.31 0.31 0.33 0.35 0.30 0.30 0.30 0.25 0.26 0.23 0.17 0.29 0.20 0.32 0.28 0.27 0.25 0.39 0.44 0.39 0.44 0.53 0.53 0.63 0.64
0.33 0.38 0.37 0.34 0.34 0.36 0.34 0.30 0.37 0.46 0.49 0.51 0.52 0.54 0.55 0.56 0.56 0.55 0.48 0.48 0.44 0.33 0.30 0.30 0.25 0.31 0.35 0.35 0.42 0.29 0.34 0.39 0.38 0.41 0.35 0.33 0.25 0.31 0.21 0.22 0.26 0.38 0.48 0.38 0.37 0.40 0.41 0.44 0.46 0.48 0.54 0.53 0.57 0.61
0.38 0.40 0.37 0.34 0.32 0.30 0.29 0.37 0.46 0.50 0.53 0.54 0.55 0.57 0.59 0.60 0.61 0.58 0.49 0.52 0.44 0.36 0.24 0.22 0.35 0.30 0.35 0.35 0.36 0.38 0.36 0.44 0.43 0.44 0.35 0.32 0.26 0.36 0.27 0.31 0.33 0.40 0.42 0.37 0.37 0.43 0.46 0.48 0.50 0.52 0.56 0.57 0.56 0.58
0.41 0.36 0.33 0.32 0.32 0.31 0.36 0.44 0.49 0.52 0.57 0.60 0.61 0.64 0.64 0.64 0.64 0.61 0.55 0.54 0.50 0.33 0.24 0.27 0.32 0.31 0.34 0.35 0.33 0.36 0.36 0.35 0.34 0.35 0.31 0.27 0.34 0.35 0.39 0.40 0.35 0.42 0.36 0.32 0.31 0.44 0.46 0.45 0.51 0.53 0.53 0.54 0.54 0.52
0.35 0.35 0.36 0.34 0.32 0.35 0.42 0.48 0.53 0.58 0.59 0.61 0.63 0.64 0.64 0.66 0.64 0.52 0.38 0.50 0.51 0.41 0.29 0.21 0.31 0.30 0.36 0.34 0.34 0.34 0.36 0.35 0.37 0.34 0.32 0.36 0.45 0.40 0.32 0.30 0.40 0.43 0.46 0.48 0.43 0.51 0.51 0.52 0.52 0.53 0.50 0.52 0.55 0.54
0.36 0.36 0.34 0.31 0.33 0.42 0.48 0.53 0.57 0.60 0.62 0.64 0.64 0.62 0.62 0.61 0.57 0.41 0.33 0.37 0.44 0.43 0.30 0.24 0.24 0.34 0.36 0.38 0.35 0.33 0.35 0.35 0.33 0.33 0.31 0.32 0.36 0.41 0.35 0.29 0.39 0.43 0.47 0.49 0.51 0.51 0.45 0.49 0.46 0.49 0.49 0.47 0.48 0.47
0.31 0.31 0.31 0.34 0.43 0.49 0.53 0.57 0.60 0.63 0.63 0.63 0.62 0.62 0.58 0.53 0.50 0.41 0.46 0.41 0.41 0.35 0.33 0.22 0.21 0.26 0.41 0.31 0.28 0.36 0.31 0.34 0.33 0.32 0.35 0.33 0.36 0.40 0.30 0.36 0.40 0.43 0.45 0.45 0.45 0.47 0.46 0.46 0.45 0.44 0.45 0.44 0.42 0.42
0.31 0.31 0.38 0.47 0.50 0.53 0.58 0.61 0.62 0.65 0.61 0.61 0.59 0.57 0.49 0.41 0.34 0.40 0.49 0.44 0.42 0.33 0.23 0.23 0.18 0.17 0.37 0.32 0.33 0.31 0.32 0.23 0.34 0.28 0.31 0.36 0.32 0.28 0.33 0.35 0.36 0.40 0.39 0.39 0.41 0.41 0.41 0.40 0.40 0.40 0.40 0.38 0.37 0.37
0.37 0.46 0.49 0.53 0.58 0.58 0.60 0.62 0.64 0.61 0.60 0.56 0.49 0.35 0.28 0.35 0.50 0.51 0.41 0.32 0.30 0.30 0.34 0.28 0.32 0.27 0.36 0.36 0.33 0.31 0.32 0.26 0.25 0.30 0.40 0.32 0.27 0.33 0.35 0.37 0.38 0.39 0.39 0.41 0.37 0.36 0.37 0.36 0.37 0.37 0.35 0.36 0.36 0.35
0.53 0.56 0.58 0.60 0.60 0.60 0.63 0.63 0.61 0.59 0.54 0.43 0.30 0.28 0.35 0.45 0.39 0.33 0.26 0.27 0.30 0.27 0.32 0.32 0.33 0.30 0.42 0.33 0.34 0.40 0.32 0.35 0.25 0.31 0.31 0.27 0.24 0.30 0.34 0.34 0.37 0.38 0.38 0.37 0.38 0.38 0.38 0.37 0.35 0.34 0.34 0.35 0.34 0.33
0.59 0.61 0.62 0.63 0.63 0.63 0.61 0.61 0.58 0.50 0.43 0.35 0.34 0.36 0.39 0.34 0.30 0.24 0.24 0.27 0.26 0.23 0.32 0.31 0.33 0.34 0.39 0.45 0.37 0.38 0.31 0.33 0.25 0.38 0.30 0.23 0.26 0.32 0.33 0.33 0.34 0.35 0.35 0.35 0.36 0.35 0.35 0.35 0.34 0.34 0.33 0.33 0.34 0.34
0.61 0.61 0.62 0.63 0.63 0.61 0.61 0.57 0.52 0.47 0.43 0.44 0.30 0.28 0.28 0.28 0.21 0.20 0.18 0.20 0.22 0.29 0.36 0.38 0.33 0.36 0.40 0.44 0.37 0.34 0.29 0.26 0.39 0.29 0.24 0.26 0.30 0.32 0.32 0.32 0.32 0.34 0.34 0.34 0.34 0.35 0.35 0.34 0.34 0.33 0.32 0.32 0.32 0.32
0.61 0.60 0.62 0.63 0.62 0.61 0.57 0.53 0.45 0.47 0.45 0.32 0.28 0.21 0.23 0.20 0.22 0.22 0.22 0.23 0.31 0.36 0.37 0.39 0.36 0.36 0.37 0.32 0.32 0.25 0.31 0.33 0.25 0.21 0.21 0.26 0.29 0.30 0.30 0.30 0.29 0.29 0.30 0.30 0.30 0.31 0.31 0.31 0.31 0.31 0.31 0.31 0.30 0.30
0.63 0.63 0.63 0.62 0.61 0.58 0.55 0.46 0.51 0.52 0.40 0.29 0.27 0.19 0.22 0.28 0.29 0.31 0.34 0.32 0.36 0.42 0.40 0.38 0.37 0.35 0.30 0.27 0.28 0.26 0.25 0.21 0.22 0.21 0.25 0.29 0.30 0.30 0.29 0.29 0.29 0.29 0.30 0.30 0.30 0.29 0.29 0.29 0.29 0.29 0.30 0.30 0.30 0.29
0.63 0.62 0.59 0.62 0.59 0.57 0.52 0.47 0.49 0.42 0.35 0.30 0.29 0.25 0.29 0.28 0.29 0.31 0.32 0.32 0.39 0.41 0.41 0.36 0.31 0.26 0.24 0.24 0.20 0.18 0.19 0.18 0.21 0.24 0.26 0.29 0.29 0.29 0.29 0.30 0.30 0.30 0.30 0.29 0.30 0.29 0.29 0.29 0.28 0.28 0.29 0.28 0.25 0.23
0.56 0.52 0.61 0.59 0.56 0.52 0.49 0.45 0.46 0.36 0.30 0.27 0.27 0.31 0.30 0.29 0.28 0.30 0.33 0.34 0.41 0.36 0.27 0.28 0.22 0.20 0.25 0.18 0.17 0.20 0.19 0.21 0.24 0.26 0.29 0.29 0.29 0.29 0.30 0.30 0.30 0.30 0.30 0.30 0.29 0.29 0.29 0.29 0.28 0.26 0.24 0.23 0.23 0.22
0.51 0.57 0.57 0.54 0.49 0.46 0.43 0.42 0.38 0.33 0.27 0.28 0.26 0.28 0.30 0.30 0.29 0.30 0.32 0.36 0.35 0.31 0.29 0.25 0.27 0.20 0.19 0.19 0.20 0.25 0.27 0.28 0.28 0.27 0.28 0.29 0.30 0.30 0.30 0.30 0.30 0.30 0.30 0.30 0.29 0.29 0.29 0.27 0.25 0.24 0.23 0.21 0.18 0.15
0.54 0.56 0.55 0.52 0.50 0.44 0.39 0.36 0.34 0.26 0.27 0.29 0.30 0.30 0.29 0.28 0.30 0.31 0.32 0.33 0.33 0.33 0.29 0.26 0.22 0.21 0.23 0.26 0.25 0.26 0.27 0.27 0.27 0.28 0.30 0.31 0.32 0.31 0.31 0.31 0.31 0.30 0.30 0.29 0.29 0.27 0.26 0.24 0.21 0.18 0.16 0.15 0.13 0.14
0.54 0.54 0.53 0.51 0.47 0.39 0.33 0.33 0.35 0.28 0.24 0.27 0.29 0.27 0.27 0.26 0.29 0.29 0.31 0.31 0.30 0.28 0.25 0.23 0.22 0.24 0.26 0.28 0.29 0.29 0.29 0.30 0.30 0.28 0.28 0.30 0.31 0.30 0.29 0.28 0.27 0.26 0.25 0.24 0.22 0.20 0.17 0.15 0.15 0.15 0.15 0.15 0.14 0.13
0.50 0.48 0.45 0.43 0.40 0.38 0.32 0.30 0.29 0.29 0.28 0.25 0.26 0.25 0.25 0.27 0.27 0.26 0.27 0.30 0.27 0.25 0.24 0.27 0.28 0.30 0.31 0.32 0.33 0.32 0.31 0.30 0.28 0.27 0.26 0.24 0.25 0.25 0.25 0.25 0.24 0.23 0.20 0.18 0.16 0.15 0.14 0.13 0.13 0.13 0.12 0.11 0.11 0.11
0.53 0.56 0.49 0.47 0.39 0.36 0.33 0.33 0.29 0.30 0.27 0.26 0.27 0.26 0.25 0.24 0.25 0.26 0.29 0.27 0.26 0.28 0.30 0.30 0.31 0.32 0.31 0.30 0.31 0.31 0.30 0.28 0.25 0.24 0.24 0.24 0.22 0.22 0.21 0.21 0.19 0.17 0.16 0.15 0.14 0.13 0.12 0.12 0.12 0.11 0.10 0.10 0.10 0.10
0.52 0.48 0.43 0.40 0.32 0.29 0.28 0.36 0.27 0.27 0.23 0.24 0.26 0.23 0.23 0.24 0.25 0.29 0.25 0.26 0.27 0.31 0.32 0.32 0.32 0.33 0.31 0.32 0.31 0.28 0.25 0.24 0.23 0.23 0.22 0.21 0.20 0.19 0.17 0.16 0.16 0.14 0.13 0.12 0.12 0.10 0.10 0.10 0.10 0.09 0.10 0.09 0.09 0.09
0.43 0.38 0.33 0.30 0.29 0.26 0.30 0.27 0.28 0.26 0.26 0.23 0.21 0.21 0.22 0.24 0.26 0.24 0.22 0.24 0.28 0.32 0.32 0.31 0.31 0.29 0.29 0.26 0.23 0.23 0.23 0.23 0.21 0.20 0.20 0.18 0.15 0.15 0.14 0.13 0.13 0.12 0.12 0.11 0.10 0.09 0.08 0.08 0.09 0.09 0.09 0.08 0.08 0.08
0.32 0.30 0.30 0.26 0.30 0.26 0.23 0.23 0.24 0.23 0.21 0.22 0.21 0.22 0.23 0.26 0.22 0.21 0.21 0.24 0.27 0.28 0.28 0.28 0.25 0.23 0.21 0.21 0.22 0.22 0.22 0.19 0.17 0.15 0.15 0.15 0.13 0.12 0.12 0.11 0.11 0.10 0.11 0.10 0.09 0.09 0.08 0.08 0.08 0.08 0.08 0.08 0.07 0.07
0.25 0.30 0.28 0.28 0.27 0.23 0.23 0.20 0.21 0.21 0.22 0.21 0.22 0.25 0.27 0.22 0.21 0.19 0.21 0.22 0.23 0.23 0.23 0.23 0.21 0.21 0.21 0.21 0.20 0.18 0.17 0.18 0.16 0.14 0.14 0.13 0.12 0.11 0.10 0.09 0.08 0.09 0.10 0.09 0.08 0.07 0.08 0.08 0.08 0.08 0.08 0.08 0.08 0.08
0.22 0.24 0.28 0.31 0.29 0.28 0.24 0.24 0.24 0.22 0.21 0.21 0.23 0.24 0.22 0.17 0.15 0.18 0.22 0.23 0.22 0.24 0.25 0.24 0.23 0.21 0.20 0.20 0.19 0.19 0.18 0.17 0.15 0.13 0.12 0.12 0.12 0.12 0.10 0.09 0.08 0.09 0.10 0.09 0.08 0.08 0.07 0.07 0.07 0.07 0.07 0.08 0.08 0.08
0.23 0.23 0.21 0.24 0.26 0.26 0.22 0.21 0.21 0.21 0.22 0.24 0.23 0.19 0.16 0.12 0.14 0.19 0.21 0.24 0.24 0.25 0.25 0.24 0.23 0.21 0.19 0.18 0.18 0.18 0.16 0.15 0.13 0.11 0.10 0.10 0.10 0.09 0.09 0.09 0.09 0.09 0.09 0.08 0.08 0.08 0.08 0.07 0.07 0.07 0.07 0.07 0.07 0.08
0.20 0.22 0.20 0.16 0.17 0.19 0.19 0.19 0.19 0.21 0.23 0.22 0.18 0.13 0.12 0.15 0.19 0.20 0.22 0.24 0.25 0.23 0.21 0.21 0.20 0.19 0.18 0.17 0.17 0.15 0.13 0.11 0.10 0.09 0.08 0.08 0.08 0.09 0.09 0.09 0.08 0.08 0.08 0.08 0.09 0.09 0.09 0.08 0.08 0.08 0.08 0.08 0.08 0.07
0.21 0.22 0.19 0.16 0.13 0.12 0.14 0.16 0.16 0.19 0.20 0.18 0.16 0.15 0.14 0.16 0.20 0.23 0.23 0.23 0.22 0.21 0.21 0.20 0.19 0.18 0.16 0.15 0.14 0.13 0.12 0.12 0.12 0.10 0.08 0.07 0.08 0.09 0.09 0.08 0.08 0.08 0.08 0.08 0.07 0.08 0.08 0.08 0.07 0.07 0.07 0.07 0.07 0.07
0.23 0.21 0.20 0.19 0.15 0.14 0.15 0.15 0.16 0.18 0.17 0.16 0.15 0.13 0.13 0.16 0.18 0.21 0.21 0.22 0.21 0.21 0.19 0.18 0.18 0.17 0.16 0.13 0.11 0.09 0.09 0.10 0.10 0.09 0.09 0.08 0.08 0.08 0.08 0.08 0.08 0.07 0.07 0.07 0.07 0.07 0.06 0.06 0.06 0.06 0.06 0.07 0.07 0.07
0.20 0.19 0.20 0.19 0.19 0.18 0.16 0.14 0.14 0.14 0.14 0.13 0.12 0.14 0.14 0.14 0.14 0.17 0.20 0.20 0.19 0.18 0.18 0.18 0.17 0.17 0.15 0.14 0.13 0.12 0.11 0.09 0.08 0.08 0.08 0.08 0.08 0.07 0.07 0.08 0.08 0.07 0.07 0.06 0.06 0.07 0.07 0.07 0.07 0.07 0.07 0.07 0.08 0.08
0.19 0.20 0.20 0.20 0.20 0.18 0.17 0.14 0.12 0.12 0.13 0.12 0.12 0.14 0.14 0.14 0.13 0.16 0.20 0.20 0.19 0.18 0.18 0.19 0.18 0.16 0.13 0.11 0.10 0.09 0.09 0.08 0.08 0.08 0.07 0.07 0.07 0.07 0.07 0.07 0.06 0.06 0.06 0.06 0.07 0.06 0.06 0.07 0.07 0.07 0.07 0.08 0.08 0.08
Wind_Speed
34 33 32 30 29 27 27 26 25 24 23 21 19 18 16 15 15 15 14 15 15 15 17 17 15 14 12 12 11 9 7 8 9 7 7 9 10 11 11 12 11 12 12 12 13 15 16 12 15 15 13 8 7 8
35 33 32 30 29 28 26 26 25 24 22 21 20 20 20 19 18 17 15 16 15 14 14 15 18 20 19 18 13 11 9 7 7 7 8 9 9 9 9 10 9 8 9 11 13 12 10 9 8 10 12 9 8 8
35 33 31 30 28 27 27 25 24 23 22 21 21 21 22 22 22 21 18 16 15 14 16 18 20 21 22 21 18 13 10 9 8 8 7 9 10 9 9 10 8 8 5 6 9 11 9 8 8 7 10 9 10 11
34 32 31 29 28 27 25 24 24 23 22 22 22 23 24 25 24 24 21 20 18 12 12 14 14 16 17 20 21 20 15 10 7 7 8 8 8 8 9 9 8 8 6 6 7 9 7 6 8 8 9 9 10 11
32 31 30 28 27 26 25 23 23 22 21 22 21 21 22 22 24 24 23 22 22 15 10 11 13 14 16 19 20 18 17 13 10 7 8 8 7 5 6 9 8 3 5 6 8 8 8 7 6 8 11 10 13 12
31 29 28 27 26 25 23 22 21 20 19 19 19 18 18 19 18 19 16 20 21 16 12 9 9 12 13 18 19 17 16 13 11 8 7 8 7 4 1 7 7 3 2 4 5 7 6 6 3 5 7 9 7 10
29 28 26 25 24 23 22 20 19 17 17 16 16 13 13 15 16 14 13 13 19 16 10 9 9 11 15 15 16 16 16 14 12 11 10 9 6 5 2 4 7 4 3 4 5 4 3 4 5 2 5 9 9 8
27 26 25 24 23 22 20 19 17 15 14 13 12 12 12 15 15 12 10 15 22 15 11 9 9 9 12 15 14 15 14 14 12 12 11 9 7 6 4 4 3 5 5 2 2 2 3 4 5 4 5 7 10 11
25 24 24 23 22 21 20 18 14 13 11 12 14 17 16 14 13 12 14 20 18 12 9 9 9 8 9 12 13 13 14 13 12 13 12 11 9 8 6 6 5 5 6 7 6 6 6 6 6 7 8 8 8 10
23 23 22 22 21 22 21 18 17 16 17 18 18 15 15 17 21 20 15 13 13 11 10 9 9 8 6 8 11 11 11 12 10 12 10 10 9 9 9 8 8 9 9 10 11 11 11 10 11 11 10 10 9 9
21 21 21 20 21 21 19 21 23 21 20 18 15 14 19 24 16 12 12 13 13 10 9 8 10 10 9 7 9 9 10 9 9 10 10 8 8 10 10 10 10 10 10 11 11 12 12 12 12 11 11 11 11 10
20 21 22 23 22 20 24 26 26 20 20 18 18 22 21 17 13 12 13 12 11 10 10 10 8 10 9 9 8 8 7 7 6 8 7 7 8 9 9 9 9 10 11 10 10 10 10 10 11 11 12 13 13 12
22 23 21 23 25 29 29 28 25 25 26 22 21 17 16 14 14 12 14 12 11 10 11 9 8 8 7 6 5 6 6 6 5 4 4 5 6 6 6 6 7 8 8 9 10 10 10 10 10 10 10 11 11 11
23 26 28 29 32 33 32 30 31 29 22 18 16 16 12 12 11 12 14 13 11 9 10 8 7 6 5 5 4 4 4 3 3 4 6 5 5 5 5 6 6 7 7 7 7 8 8 9 9 9 10 10 11 11
25 32 34 36 37 36 34 34 30 24 15 13 12 11 10 9 10 12 14 13 10 9 9 8 6 5 4 3 4 4 3 3 4 4 4 4 4 4 5 5 5 6 6 5 6 6 6 6 7 7 8 8 9 10
36 39 38 41 40 36 35 30 25 18 14 13 11 10 9 10 10 12 13 13 10 9 7 5 5 4 4 3 2 5 5 6 6 5 5 5 5 5 5 5 5 5 5 5 5 5 5 6 6 7 8 10 11 12
36 38 43 40 37 34 31 24 19 14 12 10 8 10 10 11 11 11 11 10 9 8 6 4 4 5 3 3 4 4 5 6 6 5 6 7 7 7 6 5 5 5 5 5 5 6 7 8 8 9 10 12 12 13
36 37 37 35 32 29 23 19 16 13 12 10 9 9 9 10 10 9 9 8 8 7 5 4 4 4 4 4 4 4 3 4 4 5 5 5 5 5 5 5 5 5 6 6 7 8 9 10 11 12 13 14 15 16
33 33 33 28 25 22 18 16 14 12 11 10 10 9 9 8 7 8 7 7 7 7 6 4 3 4 4 4 3 3 3 3 3 4 3 3 4 4 4 5 5 6 6 7 9 10 12 13 15 17 18 19 20 21
29 27 24 21 18 15 13 12 12 10 9 9 8 7 6 5 6 7 6 6 7 7 5 4 4 4 4 3 3 2 2 2 2 2 3 3 3 3 3 4 6 7 9 10 12 14 15 17 18 20 20 22 23 24
21 18 17 15 14 12 10 10 10 9 9 9 9 8 6 6 7 7 7 6 7 5 5 4 4 3 2 2 2 2 1 2 2 1 1 2 4 5 7 9 10 12 13 15 16 17 19 20 21 22 23 24 25 27
15 15 13 11 10 9 9 8 9 9 8 10 10 9 9 8 8 7 7 5 5 5 5 5 4 3 3 2 1 1 2 2 0 1 3 5 7 9 11 13 14 16 17 18 19 20 22 23 24 25 25 25 26 26
14 12 10 9 9 9 10 10 10 10 10 11 10 9 8 7 7 7 6 5 5 5 6 5 4 4 4 3 4 2 1 1 4 5 7 8 10 12 14 16 17 18 19 20 22 23 24 24 24 24 24 24 24 24
10 9 8 9 9 10 11 11 11 11 10 10 9 8 8 8 7 6 5 5 6 6 5 5 5 5 4 3 1 2 4 5 6 9 10 12 14 16 16 17 18 20 21 22 22 22 22 23 23 23 22 22 21 21
8 6 7 7 9 10 11 11 11 10 10 10 9 8 8 8 6 5 6 6 7 7 7 6 5 4 2 1 3 5 7 8 10 12 14 15 15 16 18 19 20 21 21 21 22 23 23 22 21 20 19 19 18 18
8 6 7 7 8 10 12 13 13 13 12 11 10 9 8 7 6 5 6 8 8 8 7 6 4 1 2 4 5 8 10 11 13 14 16 17 18 19 20 20 20 22 22 22 22 22 21 19 18 18 18 18 18 17
8 6 7 8 9 11 12 12 14 13 12 12 11 10 8 6 6 5 7 8 8 8 6 4 2 3 5 6 9 11 12 14 15 16 17 19 21 21 20 20 21 22 22 22 21 19 18 17 17 17 17 17 17 17
7 7 9 8 11 11 13 13 12 12 11 10 11 8 8 7 6 7 8 8 7 6 4 2 4 5 7 9 11 12 14 14 15 17 19 20 20 19 20 21 21 22 21 20 19 18 17 17 16 16 16 16 16 17
8 9 10 10 11 11 11 12 11 10 10 10 10 8 6 5 5 7 8 7 6 4 3 4 6 7 9 11 13 14 15 16 18 20 21 21 21 21 21 22 22 21 20 18 18 17 17 16 16 16 17 17 17 17
9 9 10 10 9 9 8 8 9 9 10 9 7 6 5 5 5 6 6 5 5 5 5 6 8 10 12 13 15 16 18 20 21 22 21 21 21 21 22 22 21 20 18 18 17 17 17 17 17 17 16 16 17 17
9 9 9 9 9 8 9 8 7 8 7 6 5 6 5 5 4 3 4 5 5 6 7 9 11 12 14 15 16 18 20 21 21 21 21 20 21 21 21 20 19 18 18 17 17 17 17 17 17 16 16 17 17 18
8 8 9 9 10 11 9 7 7 7 7 6 5 5 4 4 5 6 6 6 7 8 10 11 13 15 16 17 18 20 21 20 20 21 21 21 21 21 20 19 18 18 18 18 18 18 18 17 17 17 17 18 19 20
9 9 9 9 9 10 10 8 7 7 7 7 7 6 6 6 7 8 8 8 9 10 11 13 14 15 16 17 18 19 20 20 20 20 20 21 20 20 19 19 18 18 18 18 19 18 18 18 17 17 18 19 20 22
Wind_Direction
242 240 242 247 250 255 262 266 271 273 272 269 259 254 253 251 249 248 254 244 244 252 251 244 240 233 231 232 231 241 251 227 226 230 220 207 209 216 219 223 225 223 226 233 230 232 244 263 253 236 234 243 243 196
237 237 243 245 249 255 258 264 268 268 266 262 253 251 250 250 249 245 251 245 245 254 255 248 242 238 236 234 232 229 221 213 215 226 221 218 217 219 216 223 227 235 239 239 227 230 237 256 238 235 223 211 208 193
234 238 240 244 247 252 258 261 263 262 261 256 253 251 251 251 248 245 247 243 245 261 266 251 240 240 237 230 220 212 215 206 223 226 224 213 216 217 221 224 229 221 236 224 227 216 222 237 232 222 213 211 212 200
234 235 238 241 246 252 254 258 258 258 257 255 255 256 254 251 249 243 243 238 237 259 263 252 233 235 232 218 213 214 217 215 221 212 214 207 214 211 218 234 222 230 235 240 236 205 208 226 221 213 207 205 205 208
230 233 236 240 244 247 252 253 253 254 256 259 253 259 256 249 245 236 236 236 231 243 267 236 243 232 209 201 200 205 207 217 214 212 206 211 215 216 233 212 202 238 233 238 225 234 225 222 227 217 208 220 219 219
228 230 233 238 242 246 246 247 248 252 253 251 252 260 250 247 223 217 227 225 223 233 231 227 200 196 192 192 198 203 204 203 206 208 211 200 197 234 242 185 192 191 254 213 180 157 151 154 164 186 200 205 203 218
224 227 232 236 239 239 240 239 242 247 246 248 250 244 240 202 199 204 209 210 195 186 184 188 193 192 189 195 203 206 205 212 213 218 209 214 223 217 211 174 189 192 173 151 178 179 190 222 211 224 217 220 223 228
224 227 230 233 232 231 229 231 233 242 242 224 214 188 173 165 166 171 173 166 167 169 176 184 189 190 191 200 202 204 205 209 218 217 214 223 227 223 202 155 195 213 211 218 243 239 227 218 236 251 264 250 248 250
222 225 226 226 225 222 218 216 220 199 190 179 168 161 158 161 158 158 152 154 162 165 170 176 175 183 183 197 197 200 204 214 214 212 220 215 222 221 221 210 224 234 245 255 256 258 259 259 263 275 274 276 270 255
219 220 222 219 215 211 202 204 195 180 168 159 158 161 161 160 144 135 141 149 163 172 168 166 165 168 166 174 177 182 191 198 201 211 204 218 226 220 227 236 245 256 266 267 263 265 265 268 270 276 278 271 268 265
213 211 206 200 190 188 196 183 175 168 165 166 166 162 157 156 156 153 153 155 157 159 166 171 176 169 158 153 171 175 175 182 199 204 212 219 226 230 234 244 256 262 266 270 268 268 268 268 267 267 266 265 266 267
197 192 188 187 186 185 172 168 167 169 169 165 157 150 151 159 162 161 165 163 166 165 157 154 156 162 160 153 159 164 173 181 192 190 210 230 231 225 235 246 257 265 265 266 265 263 263 263 265 266 265 264 263 263
196 195 189 179 174 168 164 162 161 156 150 150 149 155 161 166 169 170 168 165 160 161 163 157 150 155 162 163 162 164 184 193 181 193 210 225 201 215 233 251 265 269 267 264 266 264 265 266 268 265 263 262 259 259
193 186 175 169 163 160 159 157 153 149 145 150 153 154 164 168 176 174 171 169 163 165 162 157 154 159 166 165 178 180 194 182 195 211 228 227 217 231 251 265 269 275 272 266 264 260 258 259 261 263 263 260 258 260
165 164 163 159 157 155 153 152 153 151 147 153 153 159 169 174 173 174 172 172 169 165 162 160 161 166 167 173 194 198 211 223 221 229 232 224 234 257 270 272 275 277 276 270 265 261 261 262 263 265 266 265 263 265
137 143 148 150 151 151 150 150 150 150 141 143 143 150 155 154 157 161 167 171 173 173 175 180 180 181 193 206 223 228 234 239 243 249 238 242 265 279 273 272 274 270 268 264 259 256 260 268 270 272 275 276 275 275
124 133 139 142 145 147 151 150 151 147 148 145 145 144 148 146 152 156 163 173 181 182 182 188 190 205 217 238 238 244 236 246 237 241 251 256 259 266 265 260 261 262 260 258 259 263 269 274 276 278 279 280 282 282
127 132 137 141 144 145 148 151 152 147 145 146 141 146 141 147 156 162 172 180 185 189 196 206 201 207 207 213 247 244 237 236 244 249 258 260 262 258 254 252 258 262 264 266 270 274 276 279 282 283 281 282 283 285
131 135 137 137 141 146 149 155 156 150 152 151 144 144 148 158 165 179 185 189 189 192 192 201 194 207 226 226 231 218 223 242 242 260 258 257 257 256 258 262 266 269 273 279 280 284 287 289 289 287 285 284 286 286
132 135 143 145 147 148 150 159 165 163 170 176 173 170 170 176 186 183 181 183 182 184 184 191 203 208 196 202 212 233 247 236 224 238 266 266 260 258 270 276 282 284 288 291 292 291 292 293 295 294 292 290 289 288
137 140 145 150 152 152 155 161 169 174 176 180 180 181 178 169 162 163 166 171 167 171 178 187 188 195 202 212 217 208 225 229 245 251 228 276 291 291 295 295 294 294 295 296 296 296 296 295 295 295 295 294 293 292
152 156 158 156 164 169 171 175 171 170 170 169 165 161 157 155 155 156 160 156 168 186 181 174 177 171 164 167 175 161 148 136 130 308 305 300 301 302 300 299 298 298 299 298 298 298 299 298 298 297 297 297 296 295
149 153 156 161 161 163 165 160 158 158 155 162 157 155 158 161 165 163 157 163 170 164 163 160 154 145 137 132 121 113 75 323 317 313 311 309 309 308 306 305 303 302 302 302 301 302 302 302 301 300 299 299 298 298
154 159 164 167 165 167 167 170 166 162 159 162 162 162 168 168 168 166 167 172 172 167 161 156 150 140 130 120 84 337 327 321 318 316 313 311 312 311 310 310 309 308 306 305 305 306 306 306 304 303 302 302 302 302
147 157 161 168 173 171 173 173 172 170 169 170 163 166 170 164 163 169 175 178 175 171 161 152 147 149 149 297 320 322 322 317 315 316 315 313 312 313 313 314 314 313 311 309 308 307 307 306 306 305 305 305 305 306
131 141 144 157 168 168 174 171 173 171 165 165 170 164 161 160 158 175 177 171 166 164 162 163 162 176 308 309 316 321 319 319 319 318 318 315 312 312 312 312 313 314 315 314 313 311 309 307 306 307 307 307 306 306
129 131 132 134 148 149 151 155 158 159 161 165 167 161 158 153 171 171 158 161 163 168 170 182 221 292 308 313 319 320 320 320 320 320 320 319 319 316 312 313 314 314 315 316 315 313 311 309 308 308 308 308 308 308
136 126 132 130 130 141 147 151 154 158 163 163 160 161 160 170 175 172 172 170 167 175 191 251 286 303 312 316 317 320 321 321 323 324 324 325 324 323 322 321 320 319 318 317 316 315 314 313 311 310 309 309 310 310
146 145 139 132 131 131 137 148 158 162 166 165 163 170 177 178 183 178 177 184 192 204 243 279 300 307 315 318 320 320 319 318 320 321 322 320 320 320 321 322 322 321 320 319 317 316 314 313 312 312 311 310 310 312
161 159 155 154 150 150 158 158 163 165 166 168 172 174 173 170 168 176 188 205 227 250 271 285 296 306 310 314 317 319 319 318 317 319 319 319 318 320 321 322 322 321 320 320 320 318 318 317 316 314 314 314 314 314
168 165 165 168 170 170 168 161 158 166 176 177 172 171 176 182 190 213 232 242 253 267 281 296 304 307 311 314 316 318 320 321 322 323 323 323 323 323 322 322 322 322 321 321 319 319 318 318 317 315 315 315 316 316
181 182 179 180 183 184 181 183 185 179 189 191 203 205 215 230 245 255 262 258 272 282 291 299 306 308 312 315 317 318 320 321 322 323 324 324 324 324 324 324 323 323 322 321 321 319 318 317 315 315 314 315 316 316
189 189 184 179 186 194 199 195 205 208 211 217 231 237 242 250 260 261 265 271 278 287 294 302 308 312 315 318 320 321 322 322 323 324 325 325 326 325 325 324 325 324 324 323 322 320 319 318 315 315 315 316 316 317